Flag for Austria Weather past 2 weeks in Perg, Upper Austria, Austria

Now
60 °F

Cool.


Feels Like: 60 °F
Forecast: 56 / 69 °F
Wind: 1 mph from South

Location: Amstetten

Current Time: Sep 1, 2015 at 8:09:30 AM

Latest Report: Sep 1, 2015 at 7:00 AM


Visibility: N/A

Pressure: 29.88 "Hg

Humidity: 89%

Dew point: 57 °F

Location of PergLocation

Historic Weather in Perg — Graph

°F

Perg temperature yesterday

Maximum temperature yesterday: 94 °F (at 4:00 PM)
Minimum temperature yesterday: 57 °F (at 7:00 AM)
Average temperature yesterday: 75 °F

Past Weeks' High & Low Weather Summary

 TemperatureHumidityPressure
High95 °F (Aug 30, 5:00 PM)100% (Aug 22, 6:00 AM)30.26 "Hg (Aug 22, 6:00 AM)
Low47 °F (Aug 26, 6:00 AM)23% (Aug 31, 6:00 PM)29.69 "Hg (Aug 24, 7:00 PM)
Average68 °F68%30.02 "Hg
* Reported Aug 17 7:00 AM — Sep 1 6:00 AM, Perg, Weather by CustomWeather, © 2015

Note: Actual official high and low records may vary slightly from our data, if they occured in-between our weather recording intervals... More about our weather records

Advertising

Perg weather history for previous 24 hours

 ConditionsComfort  
Time TempWeatherWind HumidityBarometerVisibility
6:00 AM
Tue, Sep 1
63 °FMild.1 mph81%29.88 "HgN/A
4:00 AM65 °FMild.1 mph79%29.86 "HgN/A
3:00 AM67 °FMild.1 mph73%29.86 "HgN/A
2:00 AM66 °FMild.1 mph77%29.87 "HgN/A
1:00 AM65 °FMild.No wind78%29.87 "HgN/A
12:00 AM66 °FMild.1 mph77%29.86 "HgN/A
10:00 PM
Mon, Aug 31
72 °FMild.No wind63%29.84 "HgN/A
9:00 PM74 °FMild.No wind60%29.83 "HgN/A
8:00 PM82 °FWarm.No wind50%29.80 "HgN/A
7:00 PM90 °FHot.2 mph30%29.79 "HgN/A
6:00 PM94 °FExtremely hot.2 mph23%29.80 "HgN/A
5:00 PM94 °FExtremely hot.1 mph26%29.80 "HgN/A
4:00 PM94 °FExtremely hot.1 mph29%29.83 "HgN/A
3:00 PM93 °FHot.1 mph32%29.85 "HgN/A
2:00 PM91 °FHot.2 mph35%29.88 "HgN/A
1:00 PM88 °FHot.2 mph37%29.90 "HgN/A
12:00 PM85 °FPleasantly warm.1 mph40%29.93 "HgN/A
11:00 AM79 °FWarm.No wind50%29.95 "HgN/A
10:00 AM73 °FMild.No wind65%29.98 "HgN/A
9:00 AM68 °FMild.No wind76%30.00 "HgN/A
8:00 AM62 °FSunny.No wind91%30.00 "HgN/A
Weather by CustomWeather, © 2015

See weather overviewHow to use our weather pages